Retour au catalogue

STARLINK-33727

ActifCommunicationsVLEO
NORAD 63719·PAYLOAD·🇺🇸 United States

Lancé Apr 28, 2025 depuis Vandenberg Space Force Base

Loading…

Prochains Passages (prochaines 24 heures)

TLE

FraisSource: CelesTrak SupGP

Époque: Sep 15, 2026, 03:30 UTC

1 63719C 25087Y   26258.14631944 -.00019156  00000+0 -56612-3 0  2587
2 63719  53.1593  55.0631 0001031  83.2332 128.6121 15.34392743    13

Suivez STARLINK-33727 en temps réel avec AllMySat

Download on the App Store